Time,TemperatureF,DewpointF,PressureIn,WindDirection,WindDirectionDegrees,WindSpeedMPH,WindSpeedGustMPH,Humidity,HourlyPrecipIn,Conditions,Clouds,dailyrainin,SoftwareType,DateUTC
2013-12-04 00:42:00,41.0,18.0,29.69,West,280,0.0,-999.0,39,-99.99,,,-99.99,,2013-12-04 08:42:00,
2013-12-04 00:52:00,41.0,18.0,29.69,West,280,0.0,-999.0,39,-99.99,,,-99.99,,2013-12-04 08:52:00,
2013-12-04 01:02:00,41.0,18.0,29.69,West,280,0.0,-999.0,39,-99.99,,,-99.99,,2013-12-04 09:02:00,
2013-12-04 03:42:00,42.0,15.0,29.70,SSW,198,2.0,-999.0,33,-99.99,,,-99.99,,2013-12-04 11:42:00,
2013-12-04 03:53:00,42.0,15.0,29.70,SSW,198,2.0,-999.0,33,-99.99,,,-99.99,,2013-12-04 11:53:00,
2013-12-04 04:02:00,42.0,15.0,29.70,SSW,198,2.0,-999.0,33,-99.99,,,-99.99,,2013-12-04 12:02:00,
2013-12-04 06:42:00,35.0,20.0,29.73,NW,318,1.0,-999.0,55,-99.99,,,-99.99,,2013-12-04 14:42:00,
2013-12-04 06:52:00,35.0,20.0,29.73,NW,318,1.0,-999.0,55,-99.99,,,-99.99,,2013-12-04 14:52:00,
2013-12-04 07:02:00,35.0,20.0,29.73,NW,318,1.0,-999.0,55,-99.99,,,-99.99,,2013-12-04 15:02:00,
2013-12-04 09:43:00,41.0,17.0,29.79,SSW,193,4.0,-999.0,37,-99.99,,,-99.99,,2013-12-04 17:43:00,
2013-12-04 09:52:00,41.0,17.0,29.79,SSW,193,4.0,-999.0,37,-99.99,,,-99.99,,2013-12-04 17:52:00,
2013-12-04 10:02:00,41.0,17.0,29.79,SSW,193,4.0,-999.0,37,-99.99,,,-99.99,,2013-12-04 18:02:00,
2013-12-04 12:42:00,48.0,10.0,29.80,WSW,245,5.0,-999.0,21,-99.99,,,-99.99,,2013-12-04 20:42:00,
2013-12-04 12:52:00,48.0,10.0,29.80,WSW,245,5.0,-999.0,21,-99.99,,,-99.99,,2013-12-04 20:52:00,
2013-12-04 13:02:00,48.0,10.0,29.80,WSW,245,5.0,-999.0,21,-99.99,,,-99.99,,2013-12-04 21:02:00,
2013-12-04 15:43:00,49.0,9.0,29.77,WSW,240,3.0,-999.0,19,-99.99,,,-99.99,,2013-12-04 23:43:00,
2013-12-04 15:53:00,49.0,9.0,29.77,WSW,240,3.0,-999.0,19,-99.99,,,-99.99,,2013-12-04 23:53:00,
2013-12-04 16:02:00,49.0,9.0,29.77,WSW,240,3.0,-999.0,19,-99.99,,,-99.99,,2013-12-05 00:02:00,
2013-12-04 18:52:00,39.0,9.0,29.78,North,11,1.0,-999.0,28,-99.99,,,-99.99,,2013-12-05 02:52:00,
2013-12-04 19:02:00,39.0,9.0,29.78,North,11,1.0,-999.0,28,-99.99,,,-99.99,,2013-12-05 03:02:00,